Wind_Speed
38 38 36 35 35 36 37 37 36 36 35 34 33 32 31 30 30 30 29 26 24 22 22 23 25 25 25 24 22 20 18 16 14 14 14 15 16 16 15 13 13 13 12
42 42 40 38 37 38 40 40 39 39 39 37 36 35 34 32 31 31 32 29 28 28 29 27 28 29 29 29 26 25 23 21 19 17 16 15 15 17 17 17 16 15 14
43 44 42 39 38 39 40 40 40 40 41 40 40 38 35 33 32 32 34 34 32 32 31 31 30 31 33 32 31 29 28 26 23 21 19 17 16 17 19 19 19 18 16
40 39 39 38 39 40 40 41 40 39 39 39 38 36 34 34 35 35 35 34 34 34 33 33 33 32 33 35 35 33 32 30 28 25 22 20 18 18 19 20 20 19 16
40 40 39 38 38 39 40 42 42 42 43 43 41 38 37 38 38 36 34 34 35 35 35 34 34 34 33 35 37 38 37 34 32 29 26 23 20 19 19 21 21 19 17
40 40 39 39 39 40 41 42 43 44 45 44 43 40 38 37 37 36 33 33 34 35 34 33 34 33 33 34 37 39 39 38 36 34 30 26 24 22 21 21 21 20 19
37 37 36 35 36 37 38 40 42 43 44 44 43 40 38 37 35 34 33 33 33 33 33 32 32 32 32 34 35 38 40 39 39 37 34 29 27 25 23 22 21 21 21
35 36 35 34 34 35 35 36 38 39 41 41 41 39 36 35 35 35 35 35 34 34 33 32 33 34 33 33 34 38 40 41 41 40 38 34 30 27 25 23 22 22 24
37 38 38 37 37 37 35 34 34 35 37 38 38 37 36 35 37 36 36 37 37 36 35 34 34 34 33 33 35 39 41 42 42 43 41 37 33 30 27 25 24 24 26
39 40 40 40 39 39 37 36 35 35 35 36 36 37 38 37 36 35 36 36 36 35 34 34 34 33 32 32 33 35 37 39 41 42 42 38 34 31 28 26 26 26 27
37 39 41 42 42 41 39 38 37 36 35 35 36 37 39 39 38 37 34 33 34 34 33 33 32 32 30 29 31 33 34 36 37 37 38 36 33 31 27 26 27 27 28
37 37 39 41 42 42 42 40 39 38 36 36 36 37 38 39 38 38 35 32 32 32 31 29 29 28 26 26 28 30 32 33 32 31 33 34 33 30 27 27 28 28 29
36 37 38 39 40 40 41 42 42 41 38 38 38 38 38 38 38 37 36 35 33 32 30 29 28 26 25 26 27 28 30 30 30 31 32 33 32 30 28 30 30 30 29
37 37 37 38 39 39 40 41 42 42 41 40 39 38 38 38 38 37 37 35 33 31 30 28 28 27 26 26 28 28 29 30 31 32 32 32 32 31 32 32 33 32 31
38 38 37 36 36 37 37 38 39 40 41 41 39 39 39 38 37 36 35 32 29 26 25 26 28 27 26 28 28 28 28 31 33 35 35 35 34 34 35 34 35 35 35
39 40 38 35 34 34 33 33 34 35 37 38 38 39 38 36 35 34 32 29 26 24 23 23 23 23 24 28 29 27 27 30 32 35 35 33 32 33 34 35 36 37 37
40 40 38 34 33 32 31 30 30 31 33 34 35 34 33 32 32 31 28 27 26 25 24 22 22 22 24 26 26 26 26 25 24 24 25 25 27 30 32 34 36 37 39
39 40 37 34 31 29 28 27 27 28 29 30 28 27 25 25 25 26 27 27 27 26 24 23 22 23 24 25 24 22 21 20 20 21 22 24 27 30 32 34 36 38 40
38 38 37 35 32 28 25 24 23 23 24 23 23 22 23 25 25 26 27 28 27 25 24 23 22 21 21 20 18 18 18 18 19 20 21 23 25 27 30 33 35 37 38
38 37 35 34 32 29 25 23 21 19 19 19 21 22 24 26 27 28 28 28 26 23 22 21 20 18 16 16 16 16 18 19 20 21 22 23 24 26 28 31 34 36 38
40 37 34 33 31 28 24 21 19 17 17 19 20 22 24 25 25 26 25 25 24 21 19 18 18 17 16 16 16 16 17 17 19 21 23 25 27 29 31 33 35 36 38
41 38 33 32 29 26 22 19 17 15 17 20 21 21 23 23 22 19 17 17 17 17 18 18 17 17 16 15 14 14 15 17 19 21 23 25 27 29 31 33 36 38 41
42 39 33 30 28 25 22 18 17 15 16 19 21 22 20 19 18 17 16 17 17 18 17 16 15 13 12 11 12 13 15 16 18 20 22 24 26 28 30 33 36 39 41
42 39 34 30 28 25 22 20 18 17 16 17 19 19 18 17 16 16 17 17 17 16 14 12 11 10 9 9 10 11 13 15 17 20 22 25 27 29 31 35 38 41 44
42 39 34 30 28 26 23 20 19 19 19 18 17 17 17 17 17 17 16 16 15 13 11 11 10 9 8 8 9 11 13 15 17 20 22 25 26 28 30 32 35 38 41
43 40 36 31 29 27 24 22 21 21 19 18 17 17 17 18 17 17 17 16 14 13 12 11 11 9 8 8 9 10 11 13 15 17 19 20 21 22 24 27 29 31 33
Wind_Direction
279 279 277 275 276 276 276 274 272 271 269 270 271 272 272 271 272 275 278 277 273 271 270 266 262 259 259 260 262 266 270 275 277 273 266 261 261 264 267 270 276 276 273
277 274 271 270 272 274 274 273 272 270 267 267 268 269 272 275 276 277 277 277 278 279 276 275 269 261 258 257 257 259 263 267 271 272 268 263 260 261 261 262 265 271 275
278 276 271 271 273 273 275 276 276 275 272 271 270 271 270 273 277 278 278 279 280 282 280 277 276 268 260 257 255 254 256 259 263 267 267 264 262 261 260 259 260 264 269
279 279 279 277 274 271 271 273 275 275 273 273 274 273 272 274 276 277 277 277 279 279 280 278 275 272 263 258 255 251 250 251 253 258 262 264 263 261 262 261 260 261 261
281 281 279 277 275 273 272 272 271 271 274 275 276 275 275 275 274 275 275 275 277 277 277 275 272 269 264 258 255 251 247 247 247 250 254 259 260 257 257 260 259 257 253
282 281 279 276 274 274 273 273 272 271 273 273 272 271 273 275 273 272 273 272 272 273 273 272 268 265 263 261 255 253 250 247 245 245 248 254 256 254 250 252 254 253 249
283 283 282 281 279 278 277 276 274 272 270 270 269 269 270 272 273 270 267 267 268 270 270 269 263 261 262 262 258 255 254 250 245 244 244 248 251 252 249 249 250 249 247
284 283 281 281 280 280 280 279 276 273 271 269 267 267 269 270 270 267 265 266 268 269 268 265 262 260 262 262 259 257 255 253 247 243 242 244 246 248 246 245 246 248 247
283 282 280 279 278 278 277 277 276 274 271 269 268 269 273 273 269 269 269 269 269 269 266 263 263 261 261 261 261 259 254 250 245 240 240 241 243 244 243 244 247 249 249
281 278 278 277 276 274 273 272 272 272 272 271 270 271 273 273 273 272 270 269 270 269 267 266 264 259 259 261 263 260 254 248 241 236 237 239 240 239 242 248 251 251 249
292 285 279 276 275 274 275 274 272 272 272 273 273 272 272 272 272 273 268 265 267 269 269 266 261 258 259 260 261 258 252 244 236 232 233 235 233 234 241 249 252 250 247
302 295 287 281 276 274 274 274 273 274 273 271 271 272 273 273 272 270 268 264 265 268 267 261 254 254 255 256 258 254 245 236 230 229 230 231 231 235 244 251 250 250 247
311 303 294 286 279 275 273 272 272 272 272 271 271 272 273 273 271 269 268 266 264 265 263 257 247 245 246 248 250 244 236 232 229 228 228 230 234 240 246 247 246 246 248
320 313 303 291 280 275 272 271 270 270 270 269 270 271 272 272 272 270 269 268 264 260 257 249 239 238 245 248 242 237 237 234 231 229 229 232 238 244 248 247 242 240 242
327 321 313 303 290 280 274 270 268 267 267 267 268 269 270 271 271 269 268 264 257 251 247 241 237 239 247 249 244 243 244 240 236 235 235 238 242 246 248 247 242 238 238
328 326 318 310 301 291 282 276 271 269 268 267 267 268 269 268 265 263 260 251 242 234 235 238 236 239 245 248 249 254 256 254 249 244 241 241 242 243 244 244 243 243 242
324 326 321 315 308 300 292 286 281 276 272 270 269 268 266 262 257 254 246 236 228 225 230 234 236 241 245 252 261 265 263 259 254 248 246 247 247 244 242 243 245 246 246
319 325 323 320 315 307 298 292 288 281 275 270 265 261 256 250 245 238 232 228 223 221 227 238 246 252 255 259 263 262 255 253 252 250 251 254 255 252 249 248 248 248 248
314 321 320 319 319 315 306 301 296 286 274 263 252 246 246 240 235 230 227 226 223 224 232 244 251 251 252 251 247 246 247 248 247 250 254 259 260 259 258 255 253 251 251
308 314 315 313 315 315 311 309 303 288 267 253 243 241 238 231 225 220 220 224 225 226 236 242 241 237 236 236 239 246 250 252 255 258 261 264 264 264 264 263 261 258 256
301 305 308 307 307 310 310 309 303 283 259 244 236 234 230 223 218 211 213 219 223 227 228 224 222 227 234 240 246 253 259 263 266 269 270 270 271 270 270 269 267 266 265
292 295 299 299 299 302 303 302 300 280 253 241 237 233 229 225 221 215 210 209 211 214 213 216 222 230 238 246 254 262 267 271 273 273 272 272 272 272 272 272 271 270 269
281 284 288 290 290 293 294 290 288 282 263 250 245 240 234 231 226 220 211 207 209 211 213 219 225 230 238 250 263 271 273 274 273 272 272 273 275 276 276 275 274 272 270
271 274 277 279 281 283 283 279 275 273 269 259 251 246 244 239 230 223 218 214 211 208 205 207 216 228 243 257 265 271 276 280 282 283 284 284 284 283 282 280 278 276 274
261 264 267 269 272 274 273 272 271 267 263 256 249 243 238 234 232 227 221 215 209 202 197 203 214 224 238 254 268 276 281 286 289 291 291 291 290 289 287 285 284 283 282
251 254 258 260 263 265 264 263 266 263 258 251 243 236 231 227 223 221 219 214 208 203 200 204 211 221 235 254 273 286 295 302 305 305 304 303 302 302 302 300 299 296 294
Height
5876 5875 5874 5873 5871 5870 5869 5868 5867 5867 5867 5867 5867 5867 5867 5867 5867 5867 5867 5867 5867 5868 5868 5868 5867 5867 5867 5867 5868 5868 5869 5870 5871 5871 5871 5872 5873 5875 5876 5878 5879 5879 5879
5866 5864 5863 5862 5863 5861 5860 5859 5859 5858 5857 5857 5857 5858 5858 5859 5860 5860 5860 5860 5860 5860 5861 5861 5861 5861 5861 5861 5862 5863 5864 5864 5865 5867 5867 5868 5869 5870 5871 5873 5874 5875 5876
5856 5854 5852 5852 5852 5853 5852 5850 5850 5849 5848 5847 5848 5849 5850 5851 5852 5852 5852 5852 5852 5852 5852 5852 5853 5853 5854 5855 5855 5856 5857 5859 5860 5861 5862 5863 5864 5864 5865 5867 5869 5871 5872
5848 5847 5845 5845 5844 5844 5844 5844 5842 5841 5839 5838 5839 5840 5841 5842 5843 5844 5844 5844 5843 5843 5843 5843 5844 5845 5845 5847 5848 5849 5850 5851 5853 5854 5856 5857 5858 5859 5860 5862 5864 5866 5867
5840 5839 5838 5837 5836 5835 5835 5835 5834 5833 5831 5831 5830 5830 5832 5833 5833 5834 5835 5835 5834 5834 5834 5834 5834 5835 5836 5837 5838 5840 5841 5843 5846 5848 5849 5851 5852 5853 5854 5856 5857 5860 5862
5831 5830 5829 5828 5827 5826 5826 5825 5824 5824 5823 5822 5821 5822 5823 5823 5824 5824 5825 5825 5824 5824 5824 5824 5825 5825 5826 5827 5828 5830 5832 5834 5837 5840 5843 5845 5846 5847 5848 5849 5850 5853 5856
5821 5820 5818 5817 5817 5816 5816 5815 5814 5813 5813 5812 5811 5812 5814 5814 5815 5815 5814 5815 5815 5814 5814 5815 5815 5815 5816 5817 5818 5820 5822 5824 5828 5832 5835 5837 5839 5840 5842 5843 5844 5846 5849
5812 5811 5809 5808 5807 5807 5806 5804 5803 5802 5802 5802 5801 5802 5803 5806 5805 5805 5804 5805 5805 5804 5805 5805 5805 5806 5806 5807 5808 5810 5812 5814 5817 5822 5826 5829 5831 5833 5835 5836 5837 5839 5842
5803 5801 5800 5799 5798 5798 5797 5795 5794 5792 5792 5792 5791 5791 5793 5795 5795 5795 5794 5795 5794 5794 5795 5795 5795 5796 5796 5797 5798 5799 5800 5802 5806 5811 5815 5819 5822 5825 5827 5828 5830 5831 5833
5792 5790 5789 5788 5788 5787 5786 5786 5785 5783 5782 5782 5782 5782 5782 5784 5785 5785 5785 5784 5784 5784 5784 5785 5786 5786 5787 5787 5788 5788 5789 5791 5795 5800 5805 5810 5814 5817 5819 5821 5822 5824 5825
5782 5780 5778 5776 5776 5775 5775 5774 5774 5773 5773 5773 5772 5772 5772 5772 5773 5774 5775 5775 5774 5774 5774 5775 5776 5777 5778 5778 5779 5779 5780 5782 5785 5790 5795 5800 5805 5808 5810 5812 5814 5816 5817
5772 5769 5766 5764 5762 5762 5762 5762 5762 5762 5762 5762 5762 5762 5762 5762 5762 5762 5764 5765 5764 5765 5766 5767 5768 5769 5770 5770 5771 5771 5772 5774 5777 5782 5787 5792 5796 5799 5802 5804 5805 5807 5809
5764 5759 5756 5753 5750 5749 5748 5749 5749 5750 5751 5751 5752 5751 5751 5751 5751 5751 5753 5754 5755 5756 5757 5759 5760 5762 5763 5764 5764 5763 5764 5766 5770 5775 5779 5784 5788 5791 5793 5795 5797 5799 5801
5757 5751 5746 5743 5740 5737 5736 5736 5737 5738 5739 5740 5740 5740 5740 5740 5740 5741 5742 5743 5745 5746 5748 5750 5752 5754 5756 5757 5756 5756 5756 5759 5763 5767 5771 5776 5779 5782 5785 5787 5788 5790 5792
5749 5743 5737 5733 5729 5727 5725 5725 5725 5726 5727 5728 5728 5729 5729 5729 5729 5730 5731 5733 5735 5737 5740 5742 5744 5747 5749 5750 5750 5750 5750 5753 5755 5758 5762 5766 5770 5773 5776 5778 5780 5781 5783
5741 5735 5729 5724 5720 5717 5716 5715 5715 5714 5715 5716 5717 5717 5717 5717 5718 5720 5721 5723 5726 5730 5733 5736 5738 5740 5741 5743 5744 5744 5745 5747 5749 5751 5754 5757 5760 5763 5766 5768 5771 5773 5775
5734 5729 5723 5717 5712 5709 5708 5707 5705 5705 5705 5705 5705 5705 5706 5706 5708 5710 5712 5715 5719 5723 5727 5730 5731 5733 5735 5736 5737 5738 5739 5741 5742 5745 5747 5749 5752 5755 5758 5760 5762 5764 5766
5727 5722 5716 5711 5706 5703 5700 5699 5697 5695 5695 5695 5695 5696 5697 5698 5700 5702 5705 5708 5712 5716 5720 5723 5726 5727 5729 5729 5730 5731 5733 5735 5737 5739 5741 5744 5746 5748 5750 5752 5754 5755 5756
5720 5716 5711 5705 5701 5697 5695 5692 5690 5688 5687 5686 5687 5689 5690 5691 5693 5696 5699 5702 5706 5710 5714 5718 5720 5721 5722 5723 5725 5726 5728 5730 5732 5734 5736 5737 5738 5740 5742 5743 5744 5745 5746
5712 5709 5705 5700 5696 5692 5689 5687 5684 5682 5681 5681 5682 5684 5685 5686 5688 5690 5694 5697 5701 5705 5709 5712 5714 5715 5717 5719 5721 5723 5724 5726 5727 5729 5730 5731 5732 5732 5733 5734 5735 5735 5736
5705 5701 5698 5694 5690 5687 5684 5682 5680 5678 5678 5678 5679 5680 5681 5683 5684 5686 5689 5693 5697 5700 5704 5707 5709 5711 5713 5715 5717 5718 5719 5720 5722 5723 5724 5725 5725 5725 5726 5726 5726 5725 5725
5695 5693 5691 5688 5685 5682 5680 5678 5677 5675 5675 5675 5676 5677 5678 5679 5681 5682 5685 5689 5692 5696 5700 5702 5704 5706 5708 5710 5712 5713 5714 5716 5717 5718 5719 5719 5718 5718 5717 5717 5716 5715 5714
5685 5684 5683 5680 5678 5677 5675 5674 5673 5672 5671 5672 5672 5673 5675 5676 5678 5680 5682 5685 5689 5692 5695 5698 5700 5702 5704 5706 5707 5709 5710 5711 5711 5712 5712 5711 5710 5709 5708 5706 5704 5703 5701
5672 5672 5673 5672 5671 5670 5669 5668 5668 5668 5668 5668 5668 5669 5671 5672 5675 5677 5680 5683 5686 5689 5692 5694 5697 5698 5700 5702 5703 5705 5705 5705 5705 5704 5703 5702 5701 5699 5697 5694 5691 5689 5687
5658 5660 5662 5662 5662 5662 5662 5661 5662 5663 5663 5663 5663 5665 5666 5669 5671 5675 5678 5680 5683 5686 5688 5691 5692 5694 5696 5698 5699 5700 5699 5699 5699 5697 5695 5693 5691 5688 5685 5682 5679 5676 5673
5644 5647 5650 5652 5653 5654 5654 5654 5655 5656 5656 5657 5658 5660 5662 5664 5667 5670 5674 5676 5679 5682 5685 5687 5689 5691 5692 5694 5694 5694 5694 5693 5691 5690 5687 5684 5681 5678 5675 5671 5668 5664 5660